![]() |
EMODnet Physics ERDDAP
Easier access to scientific data |
log in|
Brought to you by EMODnet Physics |
| Dataset Title: | NDBC - Collection of dew point temperature (DEWT) TimeSeries - IN SITU MultiPointTimeSeriesObservation
|
| Institution: | NDBC (Dataset ID: TS_DEWT_NDBC) |
| Information: | Summary
| License
| FGDC
| ISO 19115
| Metadata
| Background
| Subset
| Data Access Form
| Make a graph
|
| Name | Last modified | Size | Description | |
|---|---|---|---|---|
| Parent Directory | - | - | ||
| 46235_TS_DEWT_012008.nc | 27-Oct-2024 02:39 | 438831 | ||
| 46235_TS_DEWT_012009.nc | 27-Oct-2024 02:39 | 439879 | ||
| 46235_TS_DEWT_012010.nc | 27-Oct-2024 02:39 | 439124 | ||
| 46235_TS_DEWT_012019.nc | 27-Oct-2024 02:39 | 439842 | ||
| 46235_TS_DEWT_012020.nc | 27-Oct-2024 02:39 | 440004 | ||
| 46235_TS_DEWT_012021.nc | 27-Oct-2024 02:39 | 440054 | ||
| 46235_TS_DEWT_012022.nc | 27-Oct-2024 02:39 | 440207 | ||
| 46235_TS_DEWT_012023.nc | 27-Oct-2024 02:39 | 440164 | ||
| 46235_TS_DEWT_012024.nc | 27-Oct-2024 02:39 | 440127 | ||
| 46235_TS_DEWT_022008.nc | 27-Oct-2024 02:40 | 440244 | ||
| 46235_TS_DEWT_022009.nc | 27-Oct-2024 02:40 | 438773 | ||
| 46235_TS_DEWT_022019.nc | 27-Oct-2024 02:40 | 586991 | ||
| 46235_TS_DEWT_022020.nc | 27-Oct-2024 02:40 | 440346 | ||
| 46235_TS_DEWT_022021.nc | 27-Oct-2024 02:40 | 587023 | ||
| 46235_TS_DEWT_022022.nc | 27-Oct-2024 02:40 | 586971 | ||
| 46235_TS_DEWT_022023.nc | 27-Oct-2024 02:40 | 587099 | ||
| 46235_TS_DEWT_022024.nc | 16-Sep-2024 16:51 | 439759 | ||
| 46235_TS_DEWT_032008.nc | 27-Oct-2024 02:40 | 437426 | ||
| 46235_TS_DEWT_032009.nc | 27-Oct-2024 02:40 | 587121 | ||
| 46235_TS_DEWT_032019.nc | 27-Oct-2024 02:40 | 587171 | ||
| 46235_TS_DEWT_032020.nc | 27-Oct-2024 02:40 | 587274 | ||
| 46235_TS_DEWT_032021.nc | 27-Oct-2024 02:40 | 587304 | ||
| 46235_TS_DEWT_032022.nc | 27-Oct-2024 02:40 | 587292 | ||
| 46235_TS_DEWT_032023.nc | 27-Oct-2024 02:40 | 587302 | ||
| 46235_TS_DEWT_042008.nc | 27-Oct-2024 02:40 | 440157 | ||
| 46235_TS_DEWT_042009.nc | 27-Oct-2024 02:40 | 439715 | ||
| 46235_TS_DEWT_042019.nc | 27-Oct-2024 02:40 | 440280 | ||
| 46235_TS_DEWT_042021.nc | 27-Oct-2024 02:40 | 587147 | ||
| 46235_TS_DEWT_042022.nc | 27-Oct-2024 02:40 | 440258 | ||
| 46235_TS_DEWT_042023.nc | 27-Oct-2024 02:40 | 439693 | ||
| 46235_TS_DEWT_052007.nc | 27-Oct-2024 02:41 | 439670 | ||
| 46235_TS_DEWT_052008.nc | 27-Oct-2024 02:41 | 427547 | ||
| 46235_TS_DEWT_052009.nc | 27-Oct-2024 02:41 | 587019 | ||
| 46235_TS_DEWT_052019.nc | 27-Oct-2024 02:41 | 587071 | ||
| 46235_TS_DEWT_052021.nc | 27-Oct-2024 02:41 | 587229 | ||
| 46235_TS_DEWT_052022.nc | 27-Oct-2024 02:41 | 587288 | ||
| 46235_TS_DEWT_052023.nc | 27-Oct-2024 02:41 | 587240 | ||
| 46235_TS_DEWT_062007.nc | 27-Oct-2024 02:41 | 587275 | ||
| 46235_TS_DEWT_062008.nc | 27-Oct-2024 02:41 | 439819 | ||
| 46235_TS_DEWT_062009.nc | 27-Oct-2024 02:41 | 439085 | ||
| 46235_TS_DEWT_062019.nc | 27-Oct-2024 02:41 | 439569 | ||
| 46235_TS_DEWT_062021.nc | 27-Oct-2024 02:41 | 440016 | ||
| 46235_TS_DEWT_062022.nc | 27-Oct-2024 02:41 | 439868 | ||
| 46235_TS_DEWT_062023.nc | 27-Oct-2024 02:41 | 439860 | ||
| 46235_TS_DEWT_072007.nc | 27-Oct-2024 02:41 | 437658 | ||
| 46235_TS_DEWT_072008.nc | 27-Oct-2024 02:41 | 440164 | ||
| 46235_TS_DEWT_072009.nc | 27-Oct-2024 02:42 | 440202 | ||
| 46235_TS_DEWT_072019.nc | 27-Oct-2024 02:42 | 440225 | ||
| 46235_TS_DEWT_072021.nc | 27-Oct-2024 02:42 | 440218 | ||
| 46235_TS_DEWT_072022.nc | 27-Oct-2024 02:42 | 440189 | ||
| 46235_TS_DEWT_072023.nc | 27-Oct-2024 02:42 | 440264 | ||
| 46235_TS_DEWT_082007.nc | 27-Oct-2024 02:42 | 425750 | ||
| 46235_TS_DEWT_082008.nc | 27-Oct-2024 02:42 | 440314 | ||
| 46235_TS_DEWT_082009.nc | 27-Oct-2024 02:42 | 429616 | ||
| 46235_TS_DEWT_082018.nc | 27-Oct-2024 02:42 | 440437 | ||
| 46235_TS_DEWT_082019.nc | 27-Oct-2024 02:42 | 587311 | ||
| 46235_TS_DEWT_082020.nc | 27-Oct-2024 02:42 | 586974 | ||
| 46235_TS_DEWT_082021.nc | 27-Oct-2024 02:42 | 433027 | ||
| 46235_TS_DEWT_082023.nc | 27-Oct-2024 02:42 | 437782 | ||
| 46235_TS_DEWT_092007.nc | 27-Oct-2024 02:42 | 587237 | ||
| 46235_TS_DEWT_092008.nc | 27-Oct-2024 02:42 | 587278 | ||
| 46235_TS_DEWT_092009.nc | 27-Oct-2024 02:42 | 587248 | ||
| 46235_TS_DEWT_092018.nc | 27-Oct-2024 02:42 | 587235 | ||
| 46235_TS_DEWT_092019.nc | 27-Oct-2024 02:42 | 587290 | ||
| 46235_TS_DEWT_092020.nc | 27-Oct-2024 02:42 | 587430 | ||
| 46235_TS_DEWT_092021.nc | 27-Oct-2024 02:43 | 439144 | ||
| 46235_TS_DEWT_092023.nc | 27-Oct-2024 02:43 | 430932 | ||
| 46235_TS_DEWT_102007.nc | 27-Oct-2024 02:43 | 425417 | ||
| 46235_TS_DEWT_102008.nc | 27-Oct-2024 02:43 | 439994 | ||
| 46235_TS_DEWT_102009.nc | 27-Oct-2024 02:43 | 437734 | ||
| 46235_TS_DEWT_102018.nc | 27-Oct-2024 02:43 | 439841 | ||
| 46235_TS_DEWT_102019.nc | 27-Oct-2024 02:43 | 439607 | ||
| 46235_TS_DEWT_102020.nc | 27-Oct-2024 02:43 | 420478 | ||
| 46235_TS_DEWT_102021.nc | 27-Oct-2024 02:43 | 440094 | ||
| 46235_TS_DEWT_102022.nc | 27-Oct-2024 02:43 | 440218 | ||
| 46235_TS_DEWT_102023.nc | 27-Oct-2024 02:43 | 439338 | ||
| 46235_TS_DEWT_112007.nc | 27-Oct-2024 02:43 | 440197 | ||
| 46235_TS_DEWT_112008.nc | 27-Oct-2024 02:43 | 440089 | ||
| 46235_TS_DEWT_112009.nc | 27-Oct-2024 02:43 | 440240 | ||
| 46235_TS_DEWT_112018.nc | 27-Oct-2024 02:43 | 440399 | ||
| 46235_TS_DEWT_112019.nc | 27-Oct-2024 02:43 | 419766 | ||
| 46235_TS_DEWT_112020.nc | 27-Oct-2024 02:43 | 440204 | ||
| 46235_TS_DEWT_112021.nc | 27-Oct-2024 02:44 | 587223 | ||
| 46235_TS_DEWT_112022.nc | 27-Oct-2024 02:44 | 440190 | ||
| 46235_TS_DEWT_112023.nc | 27-Oct-2024 02:44 | 586999 | ||
| 46235_TS_DEWT_122007.nc | 27-Oct-2024 02:44 | 587232 | ||
| 46235_TS_DEWT_122008.nc | 27-Oct-2024 02:44 | 440213 | ||
| 46235_TS_DEWT_122009.nc | 27-Oct-2024 02:44 | 440315 | ||
| 46235_TS_DEWT_122018.nc | 27-Oct-2024 02:44 | 587297 | ||
| 46235_TS_DEWT_122019.nc | 27-Oct-2024 02:44 | 587147 | ||
| 46235_TS_DEWT_122020.nc | 27-Oct-2024 02:44 | 587320 | ||
| 46235_TS_DEWT_122021.nc | 27-Oct-2024 02:44 | 587300 | ||
| 46235_TS_DEWT_122022.nc | 27-Oct-2024 02:44 | 587313 | ||
| 46235_TS_DEWT_122023.nc | 27-Oct-2024 02:44 | 436589 | ||